SV1JCZ-13 Weather Reports


time (UTC)temp
C
wind
direction
speed
KPH
gust
KPH
rain 1hr
cm
rain 24hr
cm
rain mn
cm
humidity
%
barometer
mb
20260508012920 16 9 0.0 0.0 0.00 0.00 0.00 67
20260508012719 16 9 0.0 0.0 0.00 0.00 0.00 67
20260508012119 16 9 0.0 0.0 0.00 0.00 0.00 66
20260508011519 16 9 0.0 0.0 0.00 0.00 0.00 66
20260508010919 16 9 0.0 0.0 0.00 0.00 0.00 66
20260508010319 16 9 0.0 0.0 0.00 0.00 0.00 65
20260508005719 16 9 0.0 0.0 0.00 0.00 0.00 64
20260508005119 16 9 0.0 0.0 0.00 0.00 0.00 64
20260508004920 16 9 0.0 0.0 0.00 0.00 0.00 64
20260508004519 16 9 0.0 0.0 0.00 0.00 0.00 65
20260508003919 16 9 0.0 0.0 0.00 0.00 0.00 65
20260508003319 16 9 0.0 0.0 0.00 0.00 0.00 65
20260508002920 16 9 0.0 0.0 0.00 0.00 0.00 65
20260508002719 16 9 0.0 0.0 0.00 0.00 0.00 64
20260508002119 16 9 0.0 0.0 0.00 0.00 0.00 65
20260508001519 16 9 0.0 0.0 0.00 0.00 0.00 64
20260508000919 16 9 0.0 0.0 0.00 0.00 0.00 64
20260508000320 16 9 0.0 0.0 0.00 0.00 0.00 64
20260507235719 16 9 0.0 0.0 0.00 0.00 0.00 64
20260507235119 16 9 0.0 0.0 0.00 0.00 0.00 65
20260507234920 16 9 0.0 0.0 0.00 0.00 0.00 65
20260507234519 16 9 0.0 0.0 0.00 0.00 0.00 65
20260507233919 16 9 0.0 0.0 0.00 0.00 0.00 65
20260507233319 16 9 0.0 0.0 0.00 0.00 0.00 64
20260507232920 16 9 0.0 0.0 0.00 0.00 0.00 64
20260507232719 16 9 0.0 0.0 0.00 0.00 0.00 64
20260507232119 16 9 0.0 0.0 0.00 0.00 0.00 64
20260507231519 16 9 0.0 0.0 0.00 0.00 0.00 64
20260507230919 16 9 0.0 0.0 0.00 0.00 0.00 64
20260507230319 16 9 0.0 0.0 0.00 0.00 0.00 63
20260507225719 16 9 0.0 0.0 0.00 0.00 0.00 63
20260507225119 16 9 0.0 0.0 0.00 0.00 0.00 63
20260507224519 16 9 0.0 0.0 0.00 0.00 0.00 62
20260507223919 16 9 0.0 0.0 0.00 0.00 0.00 62
20260507223319 16 9 0.0 0.0 0.00 0.00 0.00 62
20260507222921 16 9 0.0 0.0 0.00 0.00 0.00 61
20260507222719 17 9 0.0 0.0 0.00 0.00 0.00 61
20260507222119 17 9 0.0 0.0 0.00 0.00 0.00 60
20260507221520 17 9 0.0 0.0 0.00 0.00 0.00 60
20260507220920 17 9 0.0 8.0 0.00 0.00 0.00 58
20260507220320 17 32 0.0 4.8 0.00 0.00 0.00 59
20260507215720 17 7 0.0 6.4 0.00 0.00 0.00 58
20260507215120 17 73 0.0 9.7 0.00 0.00 0.00 57
20260507214921 17 140 8.0 9.7 0.00 0.00 0.00 57
20260507214520 17 75 0.0 11.3 0.00 0.00 0.00 57
20260507213920 17 43 0.0 6.4 0.00 0.00 0.00 57
20260507213320 17 139 0.0 11.3 0.00 0.00 0.00 57
20260507212921 17 30 1.6 8.0 0.00 0.00 0.00 57
20260507212720 17 5 0.0 8.0 0.00 0.00 0.00 57
20260507212120 17 21 0.0 8.0 0.00 0.00 0.00 58
20260507211520 17 352 6.4 11.3 0.00 0.00 0.00 56
20260507210920 17 28 0.0 0.0 0.00 0.00 0.00 57
20260507210320 17 28 0.0 0.0 0.00 0.00 0.00 57
20260507205720 17 28 0.0 4.8 0.00 0.00 0.00 57
20260507205120 17 135 0.0 0.0 0.00 0.00 0.00 57
20260507204921 17 135 0.0 4.8 0.00 0.00 0.00 57
20260507204520 17 135 0.0 4.8 0.00 0.00 0.00 55
20260507203920 17 75 0.0 8.0 0.00 0.00 0.00 55
20260507203320 17 68 0.0 8.0 0.00 0.00 0.00 55
20260507202720 17 60 6.4 11.3 0.00 0.00 0.00 54
20260507202120 17 88 0.0 12.9 0.00 0.00 0.00 55
20260507201520 17 133 0.0 0.0 0.00 0.00 0.00 57
20260507200920 17 133 0.0 0.0 0.00 0.00 0.00 57
20260507200320 18 133 0.0 0.0 0.00 0.00 0.00 58
20260507195720 18 133 0.0 8.0 0.00 0.00 0.00 56
20260507195120 18 108 0.0 0.0 0.00 0.00 0.00 57
20260507194921 18 108 0.0 0.0 0.00 0.00 0.00 57
20260507194520 17 108 0.0 3.2 0.00 0.00 0.00 56
20260507193920 17 108 3.2 9.7 0.00 0.00 0.00 56
20260507193320 17 351 6.4 6.4 0.00 0.00 0.00 59
20260507192921 17 351 0.0 0.0 0.00 0.00 0.00 62
20260507192720 17 351 0.0 0.0 0.00 0.00 0.00 62
20260507192120 18 351 0.0 0.0 0.00 0.00 0.00 62
20260507191520 18 351 0.0 0.0 0.00 0.00 0.00 62
20260507190920 18 351 0.0 0.0 0.00 0.00 0.00 62
20260507190320 18 351 0.0 0.0 0.00 0.00 0.00 62
20260507185720 18 351 0.0 0.0 0.00 0.00 0.00 62
20260507185120 18 351 0.0 0.0 0.00 0.00 0.00 62
20260507184921 18 351 0.0 0.0 0.00 0.00 0.00 62
20260507184520 18 351 0.0 0.0 0.00 0.00 0.00 61
20260507183920 18 351 0.0 0.0 0.00 0.00 0.00 61
20260507183320 18 351 0.0 0.0 0.00 0.00 0.00 60
20260507182720 18 351 0.0 0.0 0.00 0.00 0.00 60
20260507182120 18 351 0.0 0.0 0.00 0.00 0.00 59
20260507181520 18 351 0.0 0.0 0.00 0.00 0.00 59
20260507180920 18 351 0.0 0.0 0.00 0.00 0.00 58
20260507180320 18 351 0.0 0.0 0.00 0.00 0.00 58
20260507175720 18 351 0.0 0.0 0.00 0.00 0.00 58
20260507175120 18 351 0.0 0.0 0.00 0.00 0.00 58
20260507174520 19 351 0.0 0.0 0.00 0.00 0.00 58
20260507173920 19 351 0.0 0.0 0.00 0.00 0.00 58
20260507173320 20 351 0.0 0.0 0.00 0.00 0.00 58
20260507172720 20 351 0.0 0.0 0.00 0.00 0.00 58
20260507172120 20 351 0.0 0.0 0.00 0.00 0.00 59
20260507171520 20 351 0.0 0.0 0.00 0.00 0.00 59
20260507170920 20 351 0.0 0.0 0.00 0.00 0.00 59
20260507170320 20 351 0.0 0.0 0.00 0.00 0.00 62
20260507165720 20 351 0.0 0.0 0.00 0.00 0.00 62
20260507165120 20 351 0.0 0.0 0.00 0.00 0.00 62
20260507164520 21 351 0.0 0.0 0.00 0.00 0.00 61
20260507163920 21 351 0.0 0.0 0.00 0.00 0.00 60
20260507163320 21 351 0.0 0.0 0.00 0.00 0.00 59
20260507162921 21 351 0.0 0.0 0.00 0.00 0.00 57
20260507162720 22 351 0.0 0.0 0.00 0.00 0.00 56
20260507162120 22 351 0.0 0.0 0.00 0.00 0.00 55
20260507161520 22 351 0.0 0.0 0.00 0.00 0.00 53
20260507160920 23 351 0.0 0.0 0.00 0.00 0.00 52
20260507160321 23 351 0.0 0.0 0.00 0.00 0.00 51
20260507155720 23 351 0.0 0.0 0.00 0.00 0.00 49
20260507155120 23 351 0.0 0.0 0.00 0.00 0.00 47
20260507154921 23 351 0.0 0.0 0.00 0.00 0.00 46
20260507154520 23 351 0.0 0.0 0.00 0.00 0.00 46
20260507153920 23 351 0.0 0.0 0.00 0.00 0.00 47
20260507153320 23 351 0.0 0.0 0.00 0.00 0.00 49
20260507152921 23 351 0.0 0.0 0.00 0.00 0.00 49
20260507152720 23 351 0.0 0.0 0.00 0.00 0.00 49
20260507152120 23 351 0.0 0.0 0.00 0.00 0.00 49
20260507151520 23 351 0.0 0.0 0.00 0.00 0.00 50
20260507150920 22 351 0.0 0.0 0.00 0.00 0.00 52
20260507150320 22 351 0.0 8.0 0.00 0.00 0.00 55
20260507145720 21 322 0.0 0.0 0.00 0.00 0.00 55
20260507145120 21 322 0.0 3.2 0.00 0.00 0.00 55
20260507144520 21 322 0.0 0.0 0.00 0.00 0.00 55
20260507143920 21 322 0.0 6.4 0.00 0.00 0.00 54
20260507143320 21 293 0.0 0.0 0.00 0.00 0.00 54
20260507142720 21 293 0.0 0.0 0.00 0.00 0.00 53
20260507142120 21 293 0.0 0.0 0.00 0.00 0.00 52
20260507141520 22 293 0.0 8.0 0.00 0.00 0.00 51
20260507140920 22 306 0.0 6.4 0.00 0.00 0.00 50
20260507140320 22 307 0.0 0.0 0.00 0.00 0.00 49
20260507135720 22 288 4.8 8.0 0.00 0.00 0.00 49
20260507135120 22 348 0.0 8.0 0.00 0.00 0.00 48
20260507134922 22 11 0.0 0.0 0.00 0.00 0.00 49
20260507134520 22 11 0.0 0.0 0.00 0.00 0.00 49
20260507133920 23 11 0.0 0.0 0.00 0.00 0.00 48
20260507133320 23 11 0.0 8.0 0.00 0.00 0.00 46
20260507132922 23 351 0.0 8.0 0.00 0.00 0.00 46
20260507132720 23 78 0.0 0.0 0.00 0.00 0.00 46
20260507132120 23 78 0.0 6.4 0.00 0.00 0.00 48
20260507131520 22 14 0.0 9.7 0.00 0.00 0.00 50
20260507130920 22 11 0.0 0.0 0.00 0.00 0.00 51
20260507130320 22 312 4.8 8.0 0.00 0.00 0.00 52
20260507125720 22 286 6.4 8.0 0.00 0.00 0.00 52
20260507125120 22 351 0.0 9.7 0.00 0.00 0.00 51
20260507124922 22 309 8.0 8.0 0.00 0.00 0.00 51
20260507124520 22 354 0.0 8.0 0.00 0.00 0.00 51
20260507123920 22 151 0.0 6.4 0.00 0.00 0.00 52
20260507123320 22 45 0.0 4.8 0.00 0.00 0.00 52
20260507122720 22 26 0.0 3.2 0.00 0.00 0.00 49
20260507122120 22 26 0.0 3.2 0.00 0.00 0.00 46
20260507121521 22 26 0.0 8.0 0.00 0.00 0.00 43
20260507120921 22 355 0.0 6.4 0.00 0.00 0.00 46
20260507120320 21 9 0.0 0.0 0.00 0.00 0.00 49
20260507115721 21 9 0.0 0.0 0.00 0.00 0.00 52
20260507115121 21 9 0.0 0.0 0.00 0.00 0.00 52
20260507114922 21 9 0.0 0.0 0.00 0.00 0.00 51
20260507114521 21 9 0.0 4.8 0.00 0.00 0.00 51
20260507113921 21 9 0.0 8.0 0.00 0.00 0.00 51
20260507113321 21 347 0.0 0.0 0.00 0.00 0.00 53
20260507112922 21 347 0.0 0.0 0.00 0.00 0.00 52
20260507112721 21 347 0.0 0.0 0.00 0.00 0.00 52
20260507112121 21 347 0.0 0.0 0.00 0.00 0.00 52
20260507111521 21 347 0.0 4.8 0.00 0.00 0.00 52
20260507110921 21 29 6.4 6.4 0.00 0.00 0.00 51
20260507110321 21 26 0.0 4.8 0.00 0.00 0.00 49
20260507105721 21 14 0.0 6.4 0.00 0.00 0.00 47
20260507105121 21 288 0.0 0.0 0.00 0.00 0.00 51
20260507104922 21 288 0.0 0.0 0.00 0.00 0.00 51
20260507104521 21 288 0.0 0.0 0.00 0.00 0.00 52
20260507103921 21 288 0.0 0.0 0.00 0.00 0.00 51
20260507103321 21 288 0.0 0.0 0.00 0.00 0.00 52
20260507102922 21 288 0.0 0.0 0.00 0.00 0.00 51
20260507102721 21 288 0.0 0.0 0.00 0.00 0.00 51
20260507102121 21 288 0.0 0.0 0.00 0.00 0.00 51
20260507101521 21 288 0.0 0.0 0.00 0.00 0.00 51
20260507100921 21 288 0.0 0.0 0.00 0.00 0.00 49
20260507100321 21 288 0.0 0.0 0.00 0.00 0.00 49
20260507095721 21 288 0.0 0.0 0.00 0.00 0.00 50
20260507095121 21 358 0.0 8.0 0.00 0.00 0.00 51
20260507094922 21 358 0.0 8.0 0.00 0.00 0.00 49
20260507094521 21 358 3.2 4.8 0.00 0.00 0.00 49
20260507093921 21 309 0.0 6.4 0.00 0.00 0.00 50
20260507093321 21 309 0.0 4.8 0.00 0.00 0.00 51
20260507092721 21 358 0.0 9.7 0.00 0.00 0.00 51
20260507092121 21 331 0.0 0.0 0.00 0.00 0.00 51
20260507091521 20 331 0.0 8.0 0.00 0.00 0.00 52
20260507090921 20 2 0.0 0.0 0.00 0.00 0.00 51
20260507090321 20 2 0.0 0.0 0.00 0.00 0.00 50
20260507085721 20 2 0.0 0.0 0.00 0.00 0.00 49
20260507085121 20 2 0.0 0.0 0.00 0.00 0.00 49
20260507084922 20 2 0.0 0.0 0.00 0.00 0.00 48
20260507084521 20 2 0.0 0.0 0.00 0.00 0.00 49
20260507083921 20 2 0.0 0.0 0.00 0.00 0.00 49
20260507083321 20 2 0.0 0.0 0.00 0.00 0.00 48
20260507082922 20 2 0.0 0.0 0.00 0.00 0.00 47
20260507082721 20 2 0.0 8.0 0.00 0.00 0.00 47
20260507082121 20 344 0.0 0.0 0.00 0.00 0.00 49
20260507081521 20 344 0.0 11.3 0.00 0.00 0.00 49
20260507080921 20 305 0.0 4.8 0.00 0.00 0.00 47
20260507080321 20 299 0.0 0.0 0.00 0.00 0.00 48
20260507075721 20 299 0.0 0.0 0.00 0.00 0.00 49
20260507075121 19 299 0.0 6.4 0.00 0.00 0.00 52
20260507074923 19 315 4.8 6.4 0.00 0.00 0.00 51
20260507074521 19 354 0.0 8.0 0.00 0.00 0.00 50
20260507073921 19 49 0.0 0.0 0.00 0.00 0.00 41
20260507073321 19 49 0.0 8.0 0.00 0.00 0.00 44
20260507072922 19 305 0.0 6.4 0.00 0.00 0.00 47
20260507072721 19 305 0.0 6.4 0.00 0.00 0.00 48
20260507072121 19 288 0.0 0.0 0.00 0.00 0.00 50
20260507071521 19 288 0.0 0.0 0.00 0.00 0.00 50
20260507070921 19 288 0.0 6.4 0.00 0.00 0.00 51
20260507070321 18 267 6.4 8.0 0.00 0.00 0.00 48
20260507065721 18 139 0.0 1.6 0.00 0.00 0.00 44
20260507065121 17 163 0.0 0.0 0.00 0.00 0.00 49
20260507064922 17 163 0.0 0.0 0.00 0.00 0.00 54
20260507064521 17 163 0.0 0.0 0.00 0.00 0.00 52
20260507063921 17 163 0.0 0.0 0.00 0.00 0.00 53
20260507063321 17 163 0.0 0.0 0.00 0.00 0.00 53
20260507062922 17 163 0.0 0.0 0.00 0.00 0.00 51
20260507062721 17 163 0.0 0.0 0.00 0.00 0.00 50
20260507062121 17 163 0.0 0.0 0.00 0.00 0.00 51
20260507061521 17 163 0.0 0.0 0.00 0.00 0.00 50
20260507060921 17 163 0.0 0.0 0.00 0.00 0.00 51
20260507060321 17 163 0.0 0.0 0.00 0.00 0.00 54
20260507055721 17 163 0.0 0.0 0.00 0.00 0.00 51
20260507055121 17 163 0.0 0.0 0.00 0.00 0.00 48
20260507054922 17 163 0.0 0.0 0.00 0.00 0.00 48
20260507054521 17 163 0.0 0.0 0.00 0.00 0.00 50
20260507053921 16 163 0.0 0.0 0.00 0.00 0.00 53
20260507053321 16 163 0.0 1.6 0.00 0.00 0.00 56
20260507052922 16 163 0.0 0.0 0.00 0.00 0.00 60
20260507052721 16 163 0.0 0.0 0.00 0.00 0.00 60
20260507052121 15 163 0.0 0.0 0.00 0.00 0.00 60
20260507051521 15 163 0.0 0.0 0.00 0.00 0.00 60
20260507050921 15 163 0.0 0.0 0.00 0.00 0.00 60
20260507050321 15 163 0.0 0.0 0.00 0.00 0.00 59
20260507045721 15 163 0.0 0.0 0.00 0.00 0.00 58
20260507045121 14 163 0.0 0.0 0.00 0.00 0.00 59
20260507044922 14 163 0.0 0.0 0.00 0.00 0.00 58
20260507044521 14 163 0.0 0.0 0.00 0.00 0.00 58
20260507043921 14 163 0.0 0.0 0.00 0.00 0.00 58
20260507043321 14 163 0.0 0.0 0.00 0.00 0.00 57
20260507042721 13 163 0.0 0.0 0.00 0.00 0.00 57
20260507042121 13 163 0.0 0.0 0.00 0.00 0.00 56
20260507041521 13 163 0.0 0.0 0.00 0.00 0.00 56
20260507040921 13 163 0.0 0.0 0.00 0.00 0.00 56
20260507040321 13 163 0.0 0.0 0.00 0.00 0.00 55
20260507035721 13 163 0.0 0.0 0.00 0.00 0.00 55
20260507035121 13 163 0.0 0.0 0.00 0.00 0.00 55
20260507034922 13 163 0.0 0.0 0.00 0.00 0.00 55
20260507034521 13 163 0.0 0.0 0.00 0.00 0.00 55
20260507033921 13 163 0.0 0.0 0.00 0.00 0.00 55
20260507033322 13 163 0.0 0.0 0.00 0.00 0.00 54
20260507032722 13 163 0.0 0.0 0.00 0.00 0.00 55
20260507032122 13 163 0.0 0.0 0.00 0.00 0.00 55
20260507031522 13 163 0.0 0.0 0.00 0.00 0.00 56
20260507030922 13 163 0.0 0.0 0.00 0.00 0.00 55
20260507030322 13 163 0.0 0.0 0.00 0.00 0.00 55
20260507025722 13 163 0.0 0.0 0.00 0.00 0.00 54
20260507025122 14 163 0.0 0.0 0.00 0.00 0.00 54
20260507024923 14 163 0.0 0.0 0.00 0.00 0.00 54
20260507024522 14 163 0.0 0.0 0.00 0.00 0.00 53
20260507023922 14 163 0.0 0.0 0.00 0.00 0.00 52
20260507023322 14 163 0.0 0.0 0.00 0.00 0.00 51
20260507022923 14 163 0.0 0.0 0.00 0.00 0.00 52
20260507022722 14 163 0.0 0.0 0.00 0.00 0.00 52
20260507022122 14 163 0.0 8.0 0.00 0.00 0.00 53
20260507021522 14 115 0.0 0.0 0.00 0.00 0.00 53
20260507020922 14 115 0.0 4.8 0.00 0.00 0.00 53
20260507020322 15 70 0.0 0.0 0.00 0.00 0.00 53
20260507015722 14 70 0.0 0.0 0.00 0.00 0.00 52
20260507015122 14 70 0.0 11.3 0.00 0.00 0.00 50
20260507014923 14 70 0.0 11.3 0.00 0.00 0.00 50
20260507014522 14 125 0.0 4.8 0.00 0.00 0.00 52
20260507013922 14 120 0.0 0.0 0.00 0.00 0.00 55
20260507013322 14 120 0.0 0.0 0.00 0.00 0.00 56